Time,TemperatureF,DewpointF,PressureIn,WindDirection,WindDirectionDegrees,WindSpeedMPH,WindSpeedGustMPH,Humidity,HourlyPrecipIn,Conditions,Clouds,dailyrainin,SolarRadiationWatts/m^2,SoftwareType,DateUTC
2013-06-28 00:01:00,64.6,63.7,29.60,SSW,206,0.0,0.0,97,0.00,,,0.01,0.0,meteohub,2013-06-28 04:01:00,
2013-06-28 00:02:00,64.6,63.7,29.60,SSW,206,0.0,0.0,97,0.00,,,0.01,0.0,meteohub,2013-06-28 04:02:00,
2013-06-28 00:07:00,64.2,63.3,29.60,SSW,206,0.0,0.0,97,0.00,,,0.01,0.0,meteohub,2013-06-28 04:07:00,
2013-06-28 00:12:00,64.2,63.3,29.60,SSW,206,0.0,0.0,97,0.00,,,0.01,0.0,meteohub,2013-06-28 04:12:00,
2013-06-28 00:17:00,64.0,63.1,29.60,SSW,206,0.0,0.0,97,0.00,,,0.01,0.0,meteohub,2013-06-28 04:17:00,
2013-06-28 00:22:00,63.9,63.0,29.60,SSW,206,0.0,0.0,97,0.00,,,0.01,0.0,meteohub,2013-06-28 04:22:00,
2013-06-28 00:27:00,63.7,62.8,29.60,SSW,206,0.0,1.0,97,0.00,,,0.01,0.0,meteohub,2013-06-28 04:27:00,
2013-06-28 00:32:00,63.7,62.8,29.60,SSW,206,0.0,2.0,97,0.00,,,0.01,0.0,meteohub,2013-06-28 04:32:00,
2013-06-28 00:37:00,63.5,62.6,29.60,SSW,206,0.0,2.0,97,0.00,,,0.01,0.0,meteohub,2013-06-28 04:37:00,
2013-06-28 00:42:00,63.3,62.4,29.60,SSW,206,0.0,2.0,97,0.00,,,0.01,0.0,meteohub,2013-06-28 04:42:00,
2013-06-28 00:47:00,63.1,62.2,29.60,SSW,206,0.0,1.0,97,0.00,,,0.01,0.0,meteohub,2013-06-28 04:47:00,
2013-06-28 00:52:00,63.1,62.2,29.60,SSW,206,0.0,1.0,97,0.00,,,0.01,0.0,meteohub,2013-06-28 04:52:00,
2013-06-28 00:57:00,63.1,62.6,29.60,SSW,206,1.0,1.0,98,0.00,,,0.01,0.0,meteohub,2013-06-28 04:57:00,
2013-06-28 01:02:00,63.3,62.8,29.60,SSW,206,0.0,1.0,98,0.00,,,0.01,0.0,meteohub,2013-06-28 05:02:00,
2013-06-28 01:07:00,63.3,62.8,29.60,SSW,206,1.0,1.0,98,0.00,,,0.01,0.0,meteohub,2013-06-28 05:07:00,
2013-06-28 01:12:00,63.3,62.8,29.60,SSW,206,1.0,1.0,98,0.00,,,0.01,0.0,meteohub,2013-06-28 05:12:00,
2013-06-28 01:17:00,63.3,62.8,29.60,SSW,206,1.0,1.0,98,0.00,,,0.01,0.0,meteohub,2013-06-28 05:17:00,
2013-06-28 01:22:00,63.3,62.8,29.60,SSW,206,1.0,1.0,98,0.00,,,0.01,0.0,meteohub,2013-06-28 05:22:00,
2013-06-28 01:27:00,63.3,62.8,29.60,SSW,206,0.0,2.0,98,0.00,,,0.01,0.0,meteohub,2013-06-28 05:27:00,
2013-06-28 01:32:00,63.1,62.6,29.60,SSW,206,0.0,2.0,98,0.00,,,0.01,0.0,meteohub,2013-06-28 05:32:00,
2013-06-28 01:37:00,63.1,62.6,29.60,SSW,206,1.0,2.0,98,0.00,,,0.01,0.0,meteohub,2013-06-28 05:37:00,
2013-06-28 01:42:00,63.1,62.6,29.60,SSW,206,0.0,2.0,98,0.00,,,0.01,0.0,meteohub,2013-06-28 05:42:00,
2013-06-28 01:47:00,63.1,62.6,29.60,SSW,206,1.0,2.0,98,0.00,,,0.01,0.0,meteohub,2013-06-28 05:47:00,
2013-06-28 01:52:00,63.1,62.6,29.60,SSW,206,0.0,2.0,98,0.00,,,0.01,0.0,meteohub,2013-06-28 05:52:00,
2013-06-28 01:57:00,63.1,62.6,29.60,SSW,206,0.0,2.0,98,0.00,,,0.01,0.0,meteohub,2013-06-28 05:57:00,
2013-06-28 02:03:00,63.0,62.4,29.59,SE,133,0.0,2.0,98,0.00,,,0.01,0.0,meteohub,2013-06-28 06:03:00,
2013-06-28 02:08:00,63.0,62.4,29.59,SE,130,0.0,2.0,98,0.00,,,0.01,0.0,meteohub,2013-06-28 06:08:00,
2013-06-28 02:13:00,62.8,62.2,29.59,ENE,73,0.0,2.0,98,0.00,,,0.01,0.0,meteohub,2013-06-28 06:13:00,
2013-06-28 02:18:00,62.6,62.1,29.59,ENE,73,0.0,2.0,98,0.00,,,0.01,0.0,meteohub,2013-06-28 06:18:00,
2013-06-28 02:23:00,62.4,61.9,29.59,ENE,73,0.0,2.0,98,0.00,,,0.01,0.0,meteohub,2013-06-28 06:23:00,
2013-06-28 02:28:00,62.2,61.7,29.59,ENE,73,0.0,2.0,98,0.00,,,0.01,0.0,meteohub,2013-06-28 06:28:00,
2013-06-28 02:33:00,62.1,61.5,29.59,ENE,73,0.0,1.0,98,0.00,,,0.01,0.0,meteohub,2013-06-28 06:33:00,
2013-06-28 02:38:00,61.9,61.3,29.58,ENE,73,1.0,1.0,98,0.00,,,0.01,0.0,meteohub,2013-06-28 06:38:00,
2013-06-28 02:43:00,61.7,61.2,29.58,ENE,73,1.0,2.0,98,0.00,,,0.01,0.0,meteohub,2013-06-28 06:43:00,
2013-06-28 02:48:00,61.5,61.0,29.58,ENE,73,0.0,2.0,98,0.00,,,0.01,0.0,meteohub,2013-06-28 06:48:00,
2013-06-28 02:53:00,61.5,61.0,29.58,ENE,73,0.0,2.0,98,0.00,,,0.01,0.0,meteohub,2013-06-28 06:53:00,
2013-06-28 02:58:00,61.3,60.8,29.58,ENE,73,1.0,1.0,98,0.00,,,0.01,0.0,meteohub,2013-06-28 06:58:00,
2013-06-28 03:03:00,61.3,60.4,29.58,NE,52,1.0,1.0,97,0.00,,,0.01,0.0,meteohub,2013-06-28 07:03:00,
2013-06-28 03:08:00,61.2,60.6,29.58,ENE,62,1.0,3.0,98,0.00,,,0.01,0.0,meteohub,2013-06-28 07:08:00,
2013-06-28 03:13:00,61.2,60.3,29.58,ENE,61,1.0,3.0,97,0.00,,,0.01,0.0,meteohub,2013-06-28 07:13:00,
2013-06-28 03:18:00,61.0,60.1,29.58,ENE,61,0.0,3.0,97,0.00,,,0.01,0.0,meteohub,2013-06-28 07:18:00,
2013-06-28 03:23:00,61.0,60.1,29.58,ENE,61,1.0,3.0,97,0.00,,,0.01,0.0,meteohub,2013-06-28 07:23:00,
2013-06-28 03:28:00,60.8,59.9,29.58,ENE,61,0.0,2.0,97,0.00,,,0.01,0.0,meteohub,2013-06-28 07:28:00,
2013-06-28 03:33:00,60.4,59.5,29.57,ENE,61,1.0,2.0,97,0.00,,,0.01,0.0,meteohub,2013-06-28 07:33:00,
2013-06-28 03:38:00,60.3,59.4,29.57,ENE,61,0.0,1.0,97,0.00,,,0.01,0.0,meteohub,2013-06-28 07:38:00,
2013-06-28 03:43:00,60.1,59.2,29.57,ENE,61,0.0,1.0,97,0.00,,,0.01,0.0,meteohub,2013-06-28 07:43:00,
2013-06-28 03:48:00,59.7,58.8,29.57,ENE,61,0.0,1.0,97,0.00,,,0.01,0.0,meteohub,2013-06-28 07:48:00,
2013-06-28 03:53:00,59.5,58.6,29.57,ENE,61,0.0,0.0,97,0.00,,,0.01,0.0,meteohub,2013-06-28 07:53:00,
2013-06-28 03:58:00,59.5,58.6,29.57,ENE,61,0.0,0.0,97,0.00,,,0.01,0.0,meteohub,2013-06-28 07:58:00,
2013-06-28 04:03:00,59.5,58.6,29.57,ENE,61,0.0,0.0,97,0.00,,,0.01,0.0,meteohub,2013-06-28 08:03:00,
2013-06-28 04:08:00,59.4,58.8,29.57,ENE,61,0.0,0.0,98,0.00,,,0.01,0.0,meteohub,2013-06-28 08:08:00,
2013-06-28 04:13:00,59.2,58.3,29.57,ENE,61,0.0,1.0,97,0.00,,,0.01,0.0,meteohub,2013-06-28 08:13:00,
2013-06-28 04:18:00,59.2,58.6,29.57,ENE,61,0.0,1.0,98,0.00,,,0.01,0.0,meteohub,2013-06-28 08:18:00,
2013-06-28 04:24:00,59.2,58.6,29.57,ENE,61,0.0,1.0,98,0.00,,,0.01,0.0,meteohub,2013-06-28 08:24:00,
2013-06-28 04:29:00,59.0,58.5,29.57,ENE,61,0.0,1.0,98,0.00,,,0.01,0.0,meteohub,2013-06-28 08:29:00,
2013-06-28 04:34:00,58.8,58.3,29.57,ENE,61,0.0,0.0,98,0.00,,,0.01,0.0,meteohub,2013-06-28 08:34:00,
2013-06-28 04:39:00,58.8,58.3,29.57,ENE,61,0.0,0.0,98,0.00,,,0.01,0.0,meteohub,2013-06-28 08:39:00,
2013-06-28 04:44:00,58.8,58.3,29.56,ENE,61,0.0,0.0,98,0.00,,,0.01,0.0,meteohub,2013-06-28 08:44:00,
2013-06-28 04:49:00,58.6,58.1,29.57,ENE,61,0.0,0.0,98,0.00,,,0.01,0.0,meteohub,2013-06-28 08:49:00,
2013-06-28 04:54:00,58.6,58.1,29.57,ENE,61,0.0,0.0,98,0.00,,,0.01,0.0,meteohub,2013-06-28 08:54:00,
2013-06-28 04:59:00,58.5,57.9,29.57,ENE,61,0.0,1.0,98,0.00,,,0.01,0.0,meteohub,2013-06-28 08:59:00,
2013-06-28 05:04:00,58.5,57.9,29.56,ENE,61,0.0,1.0,98,0.00,,,0.01,0.0,meteohub,2013-06-28 09:04:00,
2013-06-28 05:09:00,58.5,57.9,29.56,ENE,61,0.0,1.0,98,0.00,,,0.01,0.0,meteohub,2013-06-28 09:09:00,
2013-06-28 05:14:00,58.3,57.7,29.56,ENE,61,0.0,0.0,98,0.00,,,0.01,0.0,meteohub,2013-06-28 09:14:00,
2013-06-28 05:19:00,58.3,57.7,29.56,ENE,61,0.0,0.0,98,0.00,,,0.01,0.0,meteohub,2013-06-28 09:19:00,
2013-06-28 05:24:00,58.3,57.7,29.57,ENE,61,0.0,0.0,98,0.00,,,0.01,0.0,meteohub,2013-06-28 09:24:00,
2013-06-28 05:29:00,58.3,57.7,29.56,ENE,61,0.0,0.0,98,0.00,,,0.01,0.0,meteohub,2013-06-28 09:29:00,
2013-06-28 05:34:00,58.3,57.7,29.56,ENE,61,1.0,0.0,98,0.00,,,0.01,0.0,meteohub,2013-06-28 09:34:00,
2013-06-28 05:39:00,57.9,57.4,29.57,ENE,61,0.0,0.0,98,0.00,,,0.01,0.0,meteohub,2013-06-28 09:39:00,
2013-06-28 05:44:00,57.9,57.4,29.57,ENE,61,0.0,2.0,98,0.00,,,0.01,0.0,meteohub,2013-06-28 09:44:00,
2013-06-28 05:49:00,58.1,57.7,29.56,ENE,61,0.0,2.0,99,0.00,,,0.01,0.0,meteohub,2013-06-28 09:49:00,
2013-06-28 05:54:00,57.9,57.6,29.56,ENE,61,0.0,1.0,99,0.00,,,0.01,0.0,meteohub,2013-06-28 09:54:00,
2013-06-28 05:59:00,57.9,57.6,29.56,ENE,61,0.0,0.0,99,0.00,,,0.01,0.0,meteohub,2013-06-28 09:59:00,
2013-06-28 06:04:00,57.9,57.6,29.57,ENE,61,0.0,0.0,99,0.00,,,0.01,5.0,meteohub,2013-06-28 10:04:00,
2013-06-28 06:09:00,57.7,57.2,29.57,ENE,61,0.0,0.0,98,0.00,,,0.01,5.0,meteohub,2013-06-28 10:09:00,
2013-06-28 06:14:00,57.7,57.2,29.56,ENE,61,1.0,1.0,98,0.00,,,0.01,7.0,meteohub,2013-06-28 10:14:00,
2013-06-28 06:19:00,57.9,57.6,29.57,ENE,61,0.0,1.0,99,0.00,,,0.01,9.0,meteohub,2013-06-28 10:19:00,
2013-06-28 06:24:00,57.9,57.6,29.57,ENE,61,0.0,1.0,99,0.00,,,0.01,12.0,meteohub,2013-06-28 10:24:00,
2013-06-28 06:29:00,58.3,57.9,29.57,ENE,61,0.0,1.0,99,0.00,,,0.01,14.0,meteohub,2013-06-28 10:29:00,
2013-06-28 06:34:00,58.3,57.9,29.57,ENE,61,0.0,1.0,99,0.00,,,0.01,11.0,meteohub,2013-06-28 10:34:00,
2013-06-28 06:39:00,58.6,58.3,29.57,ENE,61,1.0,1.0,99,0.00,,,0.01,11.0,meteohub,2013-06-28 10:39:00,
2013-06-28 06:45:00,58.8,58.5,29.57,ENE,61,0.0,1.0,99,0.00,,,0.01,11.0,meteohub,2013-06-28 10:45:00,
2013-06-28 06:50:00,58.8,58.5,29.57,ENE,61,0.0,1.0,99,0.00,,,0.01,9.0,meteohub,2013-06-28 10:50:00,
2013-06-28 06:55:00,58.8,58.5,29.57,ENE,61,0.0,1.0,99,0.00,,,0.01,12.0,meteohub,2013-06-28 10:55:00,
2013-06-28 07:00:00,59.0,58.6,29.57,ENE,61,0.0,1.0,99,0.00,,,0.01,23.0,meteohub,2013-06-28 11:00:00,
2013-06-28 07:05:00,59.2,58.8,29.57,ENE,61,0.0,1.0,99,0.00,,,0.01,46.0,meteohub,2013-06-28 11:05:00,
2013-06-28 07:10:00,59.4,59.0,29.57,ENE,61,0.0,0.0,99,0.00,,,0.01,39.0,meteohub,2013-06-28 11:10:00,
2013-06-28 07:15:00,59.5,59.2,29.57,ENE,61,0.0,1.0,99,0.00,,,0.01,40.0,meteohub,2013-06-28 11:15:00,
2013-06-28 07:20:00,59.7,59.4,29.57,ENE,61,0.0,1.0,99,0.00,,,0.01,39.0,meteohub,2013-06-28 11:20:00,
2013-06-28 07:25:00,60.1,59.7,29.56,ENE,61,0.0,1.0,99,0.00,,,0.01,37.0,meteohub,2013-06-28 11:25:00,
2013-06-28 07:30:00,60.1,59.7,29.57,ENE,61,0.0,1.0,99,0.00,,,0.01,33.0,meteohub,2013-06-28 11:30:00,
2013-06-28 07:35:00,60.4,60.1,29.56,ENE,61,0.0,1.0,99,0.00,,,0.01,35.0,meteohub,2013-06-28 11:35:00,
2013-06-28 07:40:00,60.4,60.1,29.56,ENE,61,0.0,1.0,99,0.00,,,0.01,47.0,meteohub,2013-06-28 11:40:00,
2013-06-28 07:45:00,60.6,60.3,29.56,ENE,61,0.0,1.0,99,0.00,,,0.01,56.0,meteohub,2013-06-28 11:45:00,
2013-06-28 07:50:00,60.6,60.3,29.56,ENE,61,0.0,1.0,99,0.00,,,0.01,51.0,meteohub,2013-06-28 11:50:00,
2013-06-28 07:55:00,60.8,60.4,29.56,ENE,61,0.0,1.0,99,0.00,,,0.01,53.0,meteohub,2013-06-28 11:55:00,
2013-06-28 08:00:00,61.0,60.6,29.56,ENE,61,0.0,0.0,99,0.00,,,0.01,72.0,meteohub,2013-06-28 12:00:00,
2013-06-28 08:05:00,61.2,60.8,29.56,ENE,61,0.0,0.0,99,0.00,,,0.01,74.0,meteohub,2013-06-28 12:05:00,
2013-06-28 08:10:00,61.5,61.2,29.56,ENE,61,0.0,1.0,99,0.00,,,0.01,53.0,meteohub,2013-06-28 12:10:00,
2013-06-28 08:15:00,61.7,61.3,29.55,ENE,61,0.0,1.0,99,0.00,,,0.01,39.0,meteohub,2013-06-28 12:15:00,
2013-06-28 08:20:00,61.9,61.5,29.55,ENE,61,0.0,1.0,99,0.00,,,0.01,44.0,meteohub,2013-06-28 12:20:00,
2013-06-28 08:25:00,61.9,61.5,29.56,ENE,61,0.0,1.0,99,0.00,,,0.01,51.0,meteohub,2013-06-28 12:25:00,
2013-06-28 08:30:00,62.1,61.7,29.56,ENE,61,0.0,1.0,99,0.00,,,0.01,62.0,meteohub,2013-06-28 12:30:00,
2013-06-28 08:35:00,62.1,61.7,29.56,ENE,61,0.0,1.0,99,0.00,,,0.01,72.0,meteohub,2013-06-28 12:35:00,
2013-06-28 08:40:00,62.2,61.9,29.56,ENE,61,0.0,1.0,99,0.00,,,0.01,76.0,meteohub,2013-06-28 12:40:00,
2013-06-28 08:46:00,62.4,62.1,29.56,ENE,61,1.0,1.0,99,0.00,,,0.01,65.0,meteohub,2013-06-28 12:46:00,
2013-06-28 08:51:00,62.8,62.4,29.56,ENE,61,0.0,1.0,99,0.00,,,0.01,74.0,meteohub,2013-06-28 12:51:00,
2013-06-28 08:56:00,62.8,62.4,29.56,ENE,61,0.0,1.0,99,0.00,,,0.01,83.0,meteohub,2013-06-28 12:56:00,
2013-06-28 09:01:00,63.0,62.6,29.56,ESE,107,0.0,1.0,99,0.00,,,0.01,148.0,meteohub,2013-06-28 13:01:00,
2013-06-28 09:06:00,63.1,62.8,29.56,ESE,107,0.0,1.0,99,0.00,,,0.01,179.0,meteohub,2013-06-28 13:06:00,
2013-06-28 09:11:00,63.5,63.1,29.56,ESE,107,0.0,1.0,99,0.00,,,0.01,142.0,meteohub,2013-06-28 13:11:00,
2013-06-28 09:16:00,63.9,63.5,29.56,ESE,107,0.0,1.0,99,0.00,,,0.01,120.0,meteohub,2013-06-28 13:16:00,
2013-06-28 09:21:00,64.2,63.9,29.56,ESE,107,0.0,1.0,99,0.00,,,0.01,95.0,meteohub,2013-06-28 13:21:00,
2013-06-28 09:26:00,64.2,63.7,29.56,ESE,107,0.0,1.0,98,0.00,,,0.01,100.0,meteohub,2013-06-28 13:26:00,
2013-06-28 09:31:00,64.6,64.0,29.56,ESE,107,0.0,1.0,98,0.00,,,0.01,111.0,meteohub,2013-06-28 13:31:00,
2013-06-28 09:36:00,64.6,63.7,29.56,ESE,107,0.0,1.0,97,0.00,,,0.01,97.0,meteohub,2013-06-28 13:36:00,
2013-06-28 09:41:00,64.8,63.9,29.56,ESE,107,0.0,1.0,97,0.00,,,0.01,93.0,meteohub,2013-06-28 13:41:00,
2013-06-28 09:46:00,64.9,63.9,29.56,ESE,107,0.0,1.0,96,0.00,,,0.01,118.0,meteohub,2013-06-28 13:46:00,
2013-06-28 09:51:00,65.1,64.0,29.56,South,191,0.0,1.0,96,0.00,,,0.01,163.0,meteohub,2013-06-28 13:51:00,
2013-06-28 09:56:00,65.1,64.0,29.56,NNE,13,1.0,2.0,96,0.00,,,0.01,158.0,meteohub,2013-06-28 13:56:00,
2013-06-28 10:01:00,65.5,64.0,29.56,East,94,0.0,2.0,95,0.00,,,0.01,178.0,meteohub,2013-06-28 14:01:00,
2013-06-28 10:06:00,65.7,64.2,29.56,ENE,78,2.0,3.0,95,0.00,,,0.01,98.0,meteohub,2013-06-28 14:06:00,
2013-06-28 10:11:00,65.7,64.2,29.56,NE,51,2.0,3.0,95,0.00,,,0.01,130.0,meteohub,2013-06-28 14:11:00,
2013-06-28 10:16:00,65.7,63.9,29.56,North,0,2.0,3.0,94,0.00,,,0.01,98.0,meteohub,2013-06-28 14:16:00,
2013-06-28 10:21:00,65.7,63.9,29.56,NE,52,2.0,5.0,94,0.00,,,0.01,77.0,meteohub,2013-06-28 14:21:00,
2013-06-28 10:26:00,65.3,63.5,29.56,ENE,62,4.0,5.0,94,0.00,,,0.01,86.0,meteohub,2013-06-28 14:26:00,
2013-06-28 10:31:00,64.9,63.5,29.56,East,81,2.0,8.0,95,0.00,,,0.01,114.0,meteohub,2013-06-28 14:31:00,
2013-06-28 10:36:00,64.8,63.3,29.57,NNE,21,3.0,8.0,95,0.00,,,0.01,93.0,meteohub,2013-06-28 14:36:00,
2013-06-28 10:41:00,64.4,63.3,29.56,East,90,5.0,8.0,96,0.00,,,0.01,100.0,meteohub,2013-06-28 14:41:00,
2013-06-28 10:46:00,64.2,63.1,29.56,East,85,3.0,6.0,96,0.00,,,0.01,88.0,meteohub,2013-06-28 14:46:00,
2013-06-28 10:51:00,64.2,63.3,29.56,ENE,69,2.0,6.0,97,0.00,,,0.01,121.0,meteohub,2013-06-28 14:51:00,
2013-06-28 10:56:00,64.2,63.3,29.56,East,96,0.0,6.0,97,0.00,,,0.01,267.0,meteohub,2013-06-28 14:56:00,
2013-06-28 11:01:00,64.4,63.5,29.56,East,80,3.0,6.0,97,0.00,,,0.01,155.0,meteohub,2013-06-28 15:01:00,
2013-06-28 11:07:00,64.6,63.7,29.56,East,92,2.0,5.0,97,0.00,,,0.01,178.0,meteohub,2013-06-28 15:07:00,
2013-06-28 11:12:00,64.8,63.9,29.56,ENE,73,2.0,5.0,97,0.00,,,0.01,223.0,meteohub,2013-06-28 15:12:00,
2013-06-28 11:17:00,65.1,64.0,29.56,ENE,70,2.0,5.0,96,0.00,,,0.01,179.0,meteohub,2013-06-28 15:17:00,
2013-06-28 11:22:00,65.5,64.0,29.56,East,83,1.0,5.0,95,0.00,,,0.01,146.0,meteohub,2013-06-28 15:22:00,
2013-06-28 11:27:00,65.5,63.7,29.56,ENE,66,1.0,5.0,94,0.00,,,0.01,179.0,meteohub,2013-06-28 15:27:00,
2013-06-28 11:32:00,65.3,63.5,29.56,ENE,76,5.0,5.0,94,0.00,,,0.01,192.0,meteohub,2013-06-28 15:32:00,
2013-06-28 11:37:00,65.1,63.7,29.56,East,98,2.0,7.0,95,0.00,,,0.01,204.0,meteohub,2013-06-28 15:37:00,
2013-06-28 11:42:00,65.3,63.9,29.56,NNE,26,3.0,7.0,95,0.00,,,0.01,181.0,meteohub,2013-06-28 15:42:00,
2013-06-28 11:47:00,65.5,64.0,29.56,East,88,5.0,7.0,95,0.00,,,0.01,227.0,meteohub,2013-06-28 15:47:00,
2013-06-28 11:52:00,65.7,64.2,29.56,East,93,2.0,6.0,95,0.00,,,0.01,227.0,meteohub,2013-06-28 15:52:00,
2013-06-28 11:57:00,65.8,64.0,29.56,NNE,29,2.0,6.0,94,0.00,,,0.01,197.0,meteohub,2013-06-28 15:57:00,
2013-06-28 12:02:00,65.8,63.7,29.56,ENE,62,2.0,6.0,93,0.00,,,0.01,171.0,meteohub,2013-06-28 16:02:00,
2013-06-28 12:07:00,65.7,63.9,29.56,ENE,67,2.0,6.0,94,0.00,,,0.01,174.0,meteohub,2013-06-28 16:07:00,
2013-06-28 12:12:00,65.7,63.9,29.56,East,89,2.0,6.0,94,0.00,,,0.01,218.0,meteohub,2013-06-28 16:12:00,
2013-06-28 12:17:00,65.8,64.4,29.56,ENE,60,2.0,7.0,95,0.00,,,0.01,239.0,meteohub,2013-06-28 16:17:00,
2013-06-28 12:22:00,65.8,64.0,29.56,East,92,1.0,7.0,94,0.00,,,0.01,200.0,meteohub,2013-06-28 16:22:00,
2013-06-28 12:27:00,66.0,64.2,29.56,NE,51,3.0,7.0,94,0.00,,,0.01,188.0,meteohub,2013-06-28 16:27:00,
2013-06-28 12:32:00,66.0,63.9,29.56,ENE,63,1.0,7.0,93,0.00,,,0.01,190.0,meteohub,2013-06-28 16:32:00,
2013-06-28 12:37:00,66.0,64.2,29.56,ENE,57,1.0,7.0,94,0.00,,,0.01,223.0,meteohub,2013-06-28 16:37:00,
2013-06-28 12:42:00,66.0,64.2,29.56,East,83,3.0,7.0,94,0.00,,,0.01,348.0,meteohub,2013-06-28 16:42:00,
2013-06-28 12:47:00,66.0,64.2,29.56,East,88,5.0,8.0,94,0.00,,,0.01,413.0,meteohub,2013-06-28 16:47:00,
2013-06-28 12:52:00,66.7,64.6,29.56,ESE,108,3.0,10.0,93,0.00,,,0.01,352.0,meteohub,2013-06-28 16:52:00,
2013-06-28 12:57:00,66.9,64.8,29.56,North,5,1.0,10.0,93,0.00,,,0.01,346.0,meteohub,2013-06-28 16:57:00,
2013-06-28 13:02:00,67.5,65.1,29.56,East,82,2.0,11.0,92,0.00,,,0.01,264.0,meteohub,2013-06-28 17:02:00,
2013-06-28 13:07:00,67.5,65.1,29.56,ENE,71,2.0,11.0,92,0.00,,,0.01,327.0,meteohub,2013-06-28 17:07:00,
2013-06-28 13:12:00,66.9,64.6,29.56,NNE,19,4.0,11.0,92,0.00,,,0.01,283.0,meteohub,2013-06-28 17:12:00,
2013-06-28 13:18:00,66.7,64.6,29.55,ENE,61,3.0,9.0,93,0.00,,,0.01,489.0,meteohub,2013-06-28 17:18:00,
2013-06-28 13:23:00,66.9,64.8,29.56,East,84,5.0,9.0,93,0.00,,,0.01,367.0,meteohub,2013-06-28 17:23:00,
2013-06-28 13:28:00,67.5,65.1,29.56,ENE,59,2.0,9.0,92,0.00,,,0.01,283.0,meteohub,2013-06-28 17:28:00,
2013-06-28 13:33:00,67.3,64.6,29.56,NE,47,5.0,9.0,91,0.00,,,0.01,309.0,meteohub,2013-06-28 17:33:00,
2013-06-28 13:38:00,67.3,64.6,29.56,ENE,78,4.0,10.0,91,0.00,,,0.01,309.0,meteohub,2013-06-28 17:38:00,
2013-06-28 13:43:00,67.5,64.4,29.56,NNE,20,4.0,10.0,90,0.00,,,0.01,346.0,meteohub,2013-06-28 17:43:00,
2013-06-28 13:48:00,67.8,65.5,29.56,ENE,68,4.0,10.0,92,0.00,,,0.01,146.0,meteohub,2013-06-28 17:48:00,
2013-06-28 13:53:00,67.6,64.6,29.56,ENE,61,3.0,10.0,90,0.00,,,0.01,223.0,meteohub,2013-06-28 17:53:00,
2013-06-28 13:58:00,67.8,65.1,29.56,North,0,4.0,8.0,91,0.00,,,0.01,176.0,meteohub,2013-06-28 17:58:00,
2013-06-28 14:03:00,67.8,64.8,29.56,East,91,3.0,8.0,90,0.00,,,0.01,144.0,meteohub,2013-06-28 18:03:00,
2013-06-28 14:08:00,67.6,64.2,29.56,NE,46,2.0,7.0,89,0.00,,,0.01,232.0,meteohub,2013-06-28 18:08:00,
2013-06-28 14:13:00,67.5,64.4,29.56,East,84,5.0,7.0,90,0.00,,,0.01,163.0,meteohub,2013-06-28 18:13:00,
2013-06-28 14:18:00,67.3,64.2,29.56,East,83,3.0,7.0,90,0.00,,,0.01,309.0,meteohub,2013-06-28 18:18:00,
2013-06-28 14:23:00,67.5,64.0,29.56,SE,125,4.0,11.0,89,0.00,,,0.01,417.0,meteohub,2013-06-28 18:23:00,
2013-06-28 14:28:00,67.6,64.0,29.56,NE,47,4.0,11.0,88,0.00,,,0.01,404.0,meteohub,2013-06-28 18:28:00,
2013-06-28 14:33:00,68.4,64.6,29.56,East,88,6.0,11.0,88,0.00,,,0.01,403.0,meteohub,2013-06-28 18:33:00,
2013-06-28 14:38:00,68.5,64.6,29.56,East,89,3.0,8.0,87,0.00,,,0.01,432.0,meteohub,2013-06-28 18:38:00,
2013-06-28 14:43:00,68.7,64.8,29.56,ENE,76,4.0,8.0,87,0.00,,,0.01,571.0,meteohub,2013-06-28 18:43:00,
2013-06-28 14:48:00,68.7,64.8,29.55,NE,52,6.0,8.0,87,0.00,,,0.01,840.0,meteohub,2013-06-28 18:48:00,
2013-06-28 14:53:00,69.3,64.9,29.55,NNW,338,1.0,8.0,86,0.00,,,0.01,388.0,meteohub,2013-06-28 18:53:00,
2013-06-28 14:58:00,69.4,64.4,29.55,NE,44,1.0,8.0,84,0.00,,,0.01,285.0,meteohub,2013-06-28 18:58:00,
2013-06-28 15:03:00,69.6,64.6,29.55,East,84,5.0,8.0,84,0.00,,,0.01,359.0,meteohub,2013-06-28 19:03:00,
2013-06-28 15:08:00,70.0,64.9,29.55,East,94,3.0,10.0,84,0.00,,,0.01,246.0,meteohub,2013-06-28 19:08:00,
2013-06-28 15:13:00,69.6,64.6,29.55,NE,38,2.0,10.0,84,0.00,,,0.01,195.0,meteohub,2013-06-28 19:13:00,
2013-06-28 15:18:00,69.4,65.1,29.55,NE,55,4.0,10.0,86,0.00,,,0.01,909.0,meteohub,2013-06-28 19:18:00,
2013-06-28 15:23:00,70.2,64.4,29.55,ENE,58,3.0,9.0,82,0.00,,,0.01,990.0,meteohub,2013-06-28 19:23:00,
2013-06-28 15:28:00,71.2,65.1,29.55,ENE,73,3.0,10.0,81,0.00,,,0.01,944.0,meteohub,2013-06-28 19:28:00,
2013-06-28 15:33:00,71.8,65.7,29.55,ENE,76,4.0,10.0,81,0.00,,,0.01,860.0,meteohub,2013-06-28 19:33:00,
2013-06-28 15:38:00,71.4,64.9,29.55,ENE,74,4.0,10.0,80,0.00,,,0.01,898.0,meteohub,2013-06-28 19:38:00,
2013-06-28 15:43:00,71.2,65.5,29.55,NNE,31,3.0,10.0,82,0.00,,,0.01,287.0,meteohub,2013-06-28 19:43:00,
2013-06-28 15:48:00,70.2,65.1,29.54,East,82,5.0,10.0,84,0.00,,,0.01,949.0,meteohub,2013-06-28 19:48:00,
2013-06-28 15:54:00,70.5,64.8,29.54,East,81,8.0,9.0,82,0.00,,,0.01,504.0,meteohub,2013-06-28 19:54:00,
2013-06-28 15:59:00,70.5,65.1,29.54,East,80,3.0,13.0,83,0.00,,,0.01,828.0,meteohub,2013-06-28 19:59:00,
2013-06-28 16:04:00,70.3,64.9,29.54,NE,42,2.0,13.0,83,0.00,,,0.01,396.0,meteohub,2013-06-28 20:04:00,
2013-06-28 16:09:00,70.0,64.6,29.55,ENE,70,7.0,13.0,83,0.00,,,0.01,758.0,meteohub,2013-06-28 20:09:00,
2013-06-28 16:14:00,70.0,64.6,29.55,ENE,57,3.0,11.0,83,0.00,,,0.01,622.0,meteohub,2013-06-28 20:14:00,
2013-06-28 16:19:00,69.6,64.2,29.55,ENE,65,8.0,13.0,83,0.00,,,0.01,316.0,meteohub,2013-06-28 20:19:00,
2013-06-28 16:24:00,70.3,64.9,29.55,East,84,7.0,13.0,83,0.00,,,0.01,847.0,meteohub,2013-06-28 20:24:00,
2013-06-28 16:29:00,70.3,64.6,29.55,East,94,3.0,13.0,82,0.00,,,0.01,311.0,meteohub,2013-06-28 20:29:00,
2013-06-28 16:34:00,70.3,64.6,29.55,NE,40,3.0,11.0,82,0.00,,,0.01,942.0,meteohub,2013-06-28 20:34:00,
2013-06-28 16:39:00,70.0,64.2,29.55,East,86,2.0,11.0,82,0.00,,,0.01,267.0,meteohub,2013-06-28 20:39:00,
2013-06-28 16:44:00,70.3,64.6,29.55,East,87,7.0,13.0,82,0.00,,,0.01,814.0,meteohub,2013-06-28 20:44:00,
2013-06-28 16:49:00,70.7,63.9,29.55,East,93,6.0,13.0,79,0.00,,,0.01,795.0,meteohub,2013-06-28 20:49:00,
2013-06-28 16:54:00,70.5,64.4,29.55,North,355,2.0,12.0,81,0.00,,,0.01,768.0,meteohub,2013-06-28 20:54:00,
2013-06-28 16:59:00,70.9,64.0,29.55,ENE,78,1.0,10.0,79,0.00,,,0.01,202.0,meteohub,2013-06-28 20:59:00,
2013-06-28 17:04:00,71.2,64.4,29.55,East,98,5.0,10.0,79,0.00,,,0.01,290.0,meteohub,2013-06-28 21:04:00,
2013-06-28 17:09:00,71.2,64.8,29.55,NE,36,2.0,10.0,80,0.00,,,0.01,190.0,meteohub,2013-06-28 21:09:00,
2013-06-28 17:14:00,70.7,63.9,29.55,NE,53,6.0,9.0,79,0.00,,,0.01,216.0,meteohub,2013-06-28 21:14:00,
2013-06-28 17:19:00,70.2,63.7,29.55,ENE,74,2.0,9.0,80,0.00,,,0.01,227.0,meteohub,2013-06-28 21:19:00,
2013-06-28 17:24:00,70.0,63.5,29.55,North,5,4.0,9.0,80,0.00,,,0.01,241.0,meteohub,2013-06-28 21:24:00,
2013-06-28 17:29:00,69.8,63.0,29.55,East,91,5.0,9.0,79,0.00,,,0.01,127.0,meteohub,2013-06-28 21:29:00,
2013-06-28 17:34:00,69.6,63.5,29.55,ENE,63,7.0,13.0,81,0.00,,,0.01,104.0,meteohub,2013-06-28 21:34:00,
2013-06-28 17:39:00,69.8,63.7,29.55,East,96,6.0,13.0,81,0.00,,,0.01,102.0,meteohub,2013-06-28 21:39:00,
2013-06-28 17:44:00,70.0,62.8,29.55,NE,44,4.0,13.0,78,0.00,,,0.01,142.0,meteohub,2013-06-28 21:44:00,
2013-06-28 17:49:00,70.3,63.9,29.55,East,85,5.0,10.0,80,0.00,,,0.01,190.0,meteohub,2013-06-28 21:49:00,
2013-06-28 17:54:00,70.5,63.7,29.56,ENE,76,4.0,8.0,79,0.00,,,0.01,142.0,meteohub,2013-06-28 21:54:00,
2013-06-28 17:59:00,70.5,63.0,29.56,ENE,76,4.0,9.0,77,0.00,,,0.01,79.0,meteohub,2013-06-28 21:59:00,
2013-06-28 18:04:00,70.2,63.0,29.56,North,355,4.0,9.0,78,0.00,,,0.01,98.0,meteohub,2013-06-28 22:04:00,
2013-06-28 18:10:00,70.0,63.1,29.56,East,80,7.0,9.0,79,0.00,,,0.01,130.0,meteohub,2013-06-28 22:10:00,
2013-06-28 18:15:00,70.0,63.1,29.56,NE,35,4.0,9.0,79,0.00,,,0.01,105.0,meteohub,2013-06-28 22:15:00,
2013-06-28 18:20:00,70.0,62.8,29.56,NNW,342,2.0,11.0,78,0.00,,,0.01,100.0,meteohub,2013-06-28 22:20:00,
2013-06-28 18:25:00,70.0,62.8,29.56,NE,53,2.0,11.0,78,0.00,,,0.01,116.0,meteohub,2013-06-28 22:25:00,
2013-06-28 18:30:00,70.2,63.0,29.56,East,95,8.0,10.0,78,0.00,,,0.01,98.0,meteohub,2013-06-28 22:30:00,
2013-06-28 18:35:00,70.0,62.8,29.56,East,82,3.0,9.0,78,0.00,,,0.01,100.0,meteohub,2013-06-28 22:35:00,
2013-06-28 18:40:00,70.0,62.8,29.55,ENE,76,3.0,9.0,78,0.00,,,0.01,81.0,meteohub,2013-06-28 22:40:00,
2013-06-28 18:45:00,69.8,62.6,29.55,East,91,5.0,9.0,78,0.00,,,0.01,97.0,meteohub,2013-06-28 22:45:00,
2013-06-28 18:50:00,69.6,62.8,29.56,East,80,6.0,9.0,79,0.00,,,0.01,118.0,meteohub,2013-06-28 22:50:00,
2013-06-28 18:55:00,69.4,62.6,29.56,NE,40,2.0,9.0,79,0.00,,,0.01,134.0,meteohub,2013-06-28 22:55:00,
2013-06-28 19:00:00,69.6,62.8,29.56,East,81,7.0,10.0,79,0.00,,,0.01,83.0,meteohub,2013-06-28 23:00:00,
2013-06-28 19:05:00,69.6,62.8,29.56,ENE,59,3.0,10.0,79,0.00,,,0.01,97.0,meteohub,2013-06-28 23:05:00,
2013-06-28 19:10:00,69.4,62.6,29.56,ENE,60,4.0,10.0,79,0.00,,,0.01,44.0,meteohub,2013-06-28 23:10:00,
2013-06-28 19:15:00,69.3,62.8,29.57,ENE,78,2.0,9.0,80,0.00,,,0.01,40.0,meteohub,2013-06-28 23:15:00,
2013-06-28 19:20:00,69.1,63.0,29.57,ENE,62,2.0,9.0,81,0.00,,,0.01,33.0,meteohub,2013-06-28 23:20:00,
2013-06-28 19:25:00,68.7,63.0,29.56,ENE,78,5.0,8.0,82,0.00,,,0.01,30.0,meteohub,2013-06-28 23:25:00,
2013-06-28 19:30:00,68.5,62.8,29.57,ENE,57,2.0,8.0,82,0.00,,,0.01,30.0,meteohub,2013-06-28 23:30:00,
2013-06-28 19:35:00,68.4,63.0,29.56,ENE,65,2.0,8.0,83,0.00,,,0.01,33.0,meteohub,2013-06-28 23:35:00,
2013-06-28 19:41:00,68.2,63.1,29.57,ENE,67,4.0,7.0,84,0.00,,,0.01,35.0,meteohub,2013-06-28 23:41:00,
2013-06-28 19:46:00,68.2,63.1,29.57,NE,36,2.0,6.0,84,0.00,,,0.01,42.0,meteohub,2013-06-28 23:46:00,
2013-06-28 19:51:00,68.2,63.5,29.57,NE,55,0.0,6.0,85,0.00,,,0.01,46.0,meteohub,2013-06-28 23:51:00,
2013-06-28 19:56:00,68.0,63.7,29.57,ENE,59,2.0,5.0,86,0.00,,,0.01,47.0,meteohub,2013-06-28 23:56:00,
2013-06-28 20:01:00,68.0,63.7,29.57,NNE,26,2.0,5.0,86,0.00,,,0.01,58.0,meteohub,2013-06-29 00:01:00,
2013-06-28 20:06:00,68.0,63.7,29.57,NE,49,3.0,5.0,86,0.00,,,0.00,54.0,meteohub,2013-06-29 00:06:00,
2013-06-28 20:11:00,68.2,63.9,29.57,NNE,32,1.0,5.0,86,0.00,,,0.00,47.0,meteohub,2013-06-29 00:11:00,
2013-06-28 20:16:00,68.2,63.9,29.57,ENE,61,1.0,5.0,86,0.00,,,0.00,42.0,meteohub,2013-06-29 00:16:00,
2013-06-28 20:21:00,68.2,63.9,29.57,ENE,74,2.0,6.0,86,0.00,,,0.00,35.0,meteohub,2013-06-29 00:21:00,
2013-06-28 20:26:00,68.2,63.9,29.57,NE,54,1.0,6.0,86,0.00,,,0.00,33.0,meteohub,2013-06-29 00:26:00,
2013-06-28 20:31:00,68.0,63.7,29.57,East,80,2.0,6.0,86,0.00,,,0.00,26.0,meteohub,2013-06-29 00:31:00,
2013-06-28 20:36:00,67.8,63.5,29.57,NE,52,3.0,4.0,86,0.00,,,0.00,12.0,meteohub,2013-06-29 00:36:00,
2013-06-28 20:42:00,67.8,63.9,29.58,ENE,62,4.0,5.0,87,0.00,,,0.00,5.0,meteohub,2013-06-29 00:42:00,
2013-06-28 20:47:00,67.3,64.2,29.58,NE,52,2.0,5.0,90,0.00,,,0.00,7.0,meteohub,2013-06-29 00:47:00,
2013-06-28 20:52:00,66.6,64.2,29.58,NE,34,0.0,5.0,92,0.01,,,0.01,12.0,meteohub,2013-06-29 00:52:00,
2013-06-28 20:57:00,66.2,64.0,29.58,ENE,60,0.0,5.0,93,0.02,,,0.02,12.0,meteohub,2013-06-29 00:57:00,
2013-06-28 21:02:00,65.8,64.0,29.58,NE,42,1.0,4.0,94,0.03,,,0.03,9.0,meteohub,2013-06-29 01:02:00,
2013-06-28 21:07:00,65.7,63.9,29.58,ENE,65,0.0,2.0,94,0.04,,,0.04,9.0,meteohub,2013-06-29 01:07:00,
2013-06-28 21:12:00,65.5,64.0,29.58,ENE,65,0.0,2.0,95,0.05,,,0.05,5.0,meteohub,2013-06-29 01:12:00,
2013-06-28 21:17:00,65.1,63.7,29.58,ENE,65,0.0,2.0,95,0.05,,,0.05,0.0,meteohub,2013-06-29 01:17:00,
2013-06-28 21:22:00,64.9,63.5,29.58,ENE,65,0.0,2.0,95,0.05,,,0.05,0.0,meteohub,2013-06-29 01:22:00,
2013-06-28 21:27:00,64.9,63.9,29.58,NE,34,0.0,1.0,96,0.05,,,0.05,0.0,meteohub,2013-06-29 01:27:00,
2013-06-28 21:32:00,64.8,63.7,29.58,East,84,1.0,2.0,96,0.05,,,0.05,0.0,meteohub,2013-06-29 01:32:00,
2013-06-28 21:37:00,64.6,63.5,29.58,NNE,29,1.0,3.0,96,0.06,,,0.06,0.0,meteohub,2013-06-29 01:37:00,
2013-06-28 21:42:00,64.4,63.3,29.58,NE,41,2.0,4.0,96,0.06,,,0.06,0.0,meteohub,2013-06-29 01:42:00,
2013-06-28 21:47:00,64.2,63.1,29.58,North,5,0.0,5.0,96,0.06,,,0.06,0.0,meteohub,2013-06-29 01:47:00,
2013-06-28 21:52:00,64.2,63.3,29.59,ENE,70,1.0,5.0,97,0.05,,,0.07,0.0,meteohub,2013-06-29 01:52:00,
2013-06-28 21:57:00,64.2,63.3,29.59,NNE,31,0.0,5.0,97,0.05,,,0.07,0.0,meteohub,2013-06-29 01:57:00,
2013-06-28 22:02:00,64.2,63.3,29.59,NNE,31,0.0,4.0,97,0.03,,,0.07,0.0,meteohub,2013-06-29 02:02:00,
2013-06-28 22:07:00,64.0,63.1,29.58,NNE,31,0.0,4.0,97,0.03,,,0.07,0.0,meteohub,2013-06-29 02:07:00,
2013-06-28 22:12:00,64.0,63.1,29.58,NNE,31,0.0,3.0,97,0.02,,,0.07,0.0,meteohub,2013-06-29 02:12:00,
2013-06-28 22:17:00,64.0,63.1,29.58,NNE,31,0.0,1.0,97,0.02,,,0.07,0.0,meteohub,2013-06-29 02:17:00,
2013-06-28 22:22:00,63.9,63.0,29.58,NNE,31,0.0,1.0,97,0.02,,,0.07,0.0,meteohub,2013-06-29 02:22:00,
2013-06-28 22:28:00,63.9,63.0,29.58,NNE,31,1.0,1.0,97,0.02,,,0.07,0.0,meteohub,2013-06-29 02:28:00,
2013-06-28 22:33:00,63.9,63.0,29.58,NNE,31,0.0,1.0,97,0.02,,,0.07,0.0,meteohub,2013-06-29 02:33:00,
2013-06-28 22:38:00,63.9,63.3,29.58,NNE,31,0.0,1.0,98,0.01,,,0.07,0.0,meteohub,2013-06-29 02:38:00,
2013-06-28 22:43:00,63.9,63.3,29.59,NNE,31,0.0,1.0,98,0.01,,,0.07,0.0,meteohub,2013-06-29 02:43:00,
2013-06-28 22:48:00,63.7,63.1,29.58,NNE,31,0.0,1.0,98,0.01,,,0.07,0.0,meteohub,2013-06-29 02:48:00,
2013-06-28 22:53:00,63.7,63.1,29.58,NNE,31,0.0,1.0,98,0.00,,,0.07,0.0,meteohub,2013-06-29 02:53:00,
2013-06-28 22:58:00,63.7,63.1,29.59,NNE,31,0.0,1.0,98,0.00,,,0.07,0.0,meteohub,2013-06-29 02:58:00,
2013-06-28 23:03:00,63.5,63.0,29.59,NNE,31,0.0,1.0,98,0.00,,,0.07,0.0,meteohub,2013-06-29 03:03:00,
2013-06-28 23:08:00,63.5,63.0,29.58,NNE,31,0.0,1.0,98,0.00,,,0.07,0.0,meteohub,2013-06-29 03:08:00,
2013-06-28 23:13:00,63.5,63.0,29.58,NNE,31,0.0,1.0,98,0.00,,,0.07,0.0,meteohub,2013-06-29 03:13:00,
2013-06-28 23:18:00,63.5,63.0,29.58,NNE,31,0.0,1.0,98,0.00,,,0.07,0.0,meteohub,2013-06-29 03:18:00,
2013-06-28 23:23:00,63.5,63.0,29.58,NNE,31,0.0,1.0,98,0.00,,,0.07,0.0,meteohub,2013-06-29 03:23:00,
2013-06-28 23:28:00,63.3,62.8,29.58,NNE,31,0.0,1.0,98,0.00,,,0.07,0.0,meteohub,2013-06-29 03:28:00,
2013-06-28 23:33:00,63.1,62.6,29.58,NNE,31,0.0,1.0,98,0.00,,,0.07,0.0,meteohub,2013-06-29 03:33:00,
2013-06-28 23:38:00,63.1,62.6,29.58,NNE,31,0.0,1.0,98,0.00,,,0.07,0.0,meteohub,2013-06-29 03:38:00,
2013-06-28 23:43:00,63.1,62.6,29.58,NNE,31,0.0,1.0,98,0.00,,,0.07,0.0,meteohub,2013-06-29 03:43:00,
2013-06-28 23:48:00,63.0,62.4,29.58,NNE,31,0.0,1.0,98,0.00,,,0.07,0.0,meteohub,2013-06-29 03:48:00,
2013-06-28 23:53:00,62.8,62.2,29.58,NNE,31,0.0,1.0,98,0.00,,,0.07,0.0,meteohub,2013-06-29 03:53:00,
2013-06-28 23:58:00,62.6,62.1,29.58,NNE,31,0.0,1.0,98,0.00,,,0.07,0.0,meteohub,2013-06-29 03:58:00,